GW5184 Weather Reports


time (UTC)temp
C
wind
direction
speed
KPH
gust
KPH
rain 1hr
cm
rain 24hr
cm
rain mn
cm
humidity
%
barometer
mb
20260504151056 25 31 0.0 0.0 0.00 0.03 0.03 91 1011.0
20260504150554 25 31 0.0 0.0 0.00 0.03 0.03 91 1010.7
20260504141020 25 18 0.0 0.0 0.00 0.03 0.03 93 1010.8
20260504140516 25 17 0.0 0.0 0.00 0.03 0.03 93 1011.0
20260504130441 25 170 0.0 0.0 0.00 0.03 0.03 92 1010.2
20260504110328 26 170 0.0 0.0 0.00 0.03 0.03 90 1009.5
20260504100245 26 174 0.0 0.0 0.00 0.03 0.03 86 1008.9
20260504081639 27 209 0.0 0.0 0.00 0.03 0.03 82 1008.5
20260504081135 27 27 0.0 0.0 0.00 0.03 0.03 84 1008.3
20260504080631 27 27 0.0 0.0 0.00 0.03 0.03 84 1008.2
20260504080128 27 26 0.0 0.0 0.00 0.03 0.03 84 1008.3
20260504050444 27 174 0.0 0.0 0.00 0.03 0.03 85 1010.8
20260504045941 27 38 0.0 1.6 0.00 0.03 0.03 86 1010.9
20260504045437 27 198 0.0 0.0 0.00 0.03 0.03 88 1010.9
20260504044933 27 6 0.0 0.0 0.00 0.03 0.03 88 1011.1
20260504044431 27 83 0.0 0.0 0.00 0.03 0.03 88 1011.3
20260504043928 27 145 0.0 0.0 0.00 0.03 0.03 88 1011.2
20260504043425 27 32 0.0 0.0 0.00 0.03 0.03 89 1011.3
20260504042923 27 279 1.6 3.2 0.00 0.03 0.03 89 1011.1
20260504042419 27 74 1.6 1.6 0.00 0.03 0.03 89 1011.3
20260504041916 27 298 0.0 3.2 0.00 0.03 0.03 89 1011.2
20260504041412 27 239 0.0 1.6 0.00 0.03 0.03 91 1011.2
20260504040908 27 212 0.0 0.0 0.00 0.03 0.03 92 1011.5
20260504040406 27 212 0.0 0.0 0.00 0.03 0.03 92 1011.7
20260504035901 27 212 0.0 0.0 0.00 0.03 0.03 92 1011.8
20260504035359 26 213 0.0 0.0 0.00 0.03 0.03 92 1011.7
20260504034855 26 56 0.0 0.0 0.00 0.03 0.03 93 1011.8
20260504034353 26 56 0.0 1.6 0.00 0.03 0.03 93 1011.9
20260504033850 26 60 0.0 0.0 0.00 0.03 0.03 93 1011.6
20260504033348 26 60 0.0 0.0 0.00 0.03 0.03 93 1011.8
20260504032844 26 60 0.0 0.0 0.00 0.03 0.03 92 1012.0
20260504032341 26 60 0.0 0.0 0.00 0.03 0.03 92 1011.9
20260504031838 26 65 0.0 0.0 0.00 0.03 0.03 92 1011.8
20260504031335 26 176 0.0 0.0 0.00 0.03 0.03 92 1011.8
20260504030831 26 176 0.0 0.0 0.00 0.03 0.03 92 1011.7
20260504030329 26 176 0.0 0.0 0.00 0.03 0.03 91 1011.5
20260504025825 26 176 0.0 0.0 0.00 0.03 0.03 91 1011.9
20260504025322 27 156 0.0 0.0 0.00 0.03 0.03 91 1011.9
20260504024819 27 148 0.0 0.0 0.00 0.03 0.03 90 1011.6
20260504024315 27 147 0.0 0.0 0.00 0.03 0.03 88 1011.9
20260504023812 27 146 1.6 1.6 0.00 0.03 0.03 88 1012.0
20260504023309 27 138 0.0 3.2 0.00 0.03 0.03 88 1012.0
20260504022805 27 135 3.2 3.2 0.00 0.03 0.03 91 1011.8
20260504022301 27 310 0.0 0.0 0.00 0.03 0.03 91 1011.9
20260504021758 27 310 0.0 0.0 0.00 0.03 0.03 91 1011.6
20260504021256 27 310 0.0 0.0 0.00 0.03 0.03 90 1011.9
20260504020752 27 310 0.0 0.0 0.18 0.03 0.03 90 1012.0
20260504020249 28 347 0.0 1.6 0.18 0.03 0.03 88 1011.9
20260504015745 28 49 0.0 0.0 0.00 0.00 0.00 88 1011.6
20260504015242 28 202 0.0 0.0 0.00 0.00 0.00 87 1011.8
20260504014737 28 203 0.0 0.0 0.00 0.00 0.00 86 1011.8
20260504014234 29 203 0.0 0.0 0.00 0.00 0.00 85 1011.8
20260504013732 29 150 0.0 0.0 0.00 0.00 0.00 80 1012.0
20260504013229 29 159 0.0 0.0 0.00 0.00 0.00 78 1012.0
20260504012725 30 140 3.2 3.2 0.00 0.00 0.00 79 1011.8
20260504012224 30 26 0.0 0.0 0.00 0.00 0.00 77 1012.1
20260504011720 30 150 0.0 1.6 0.00 0.00 0.00 76 1011.9
20260504011217 30 153 0.0 0.0 0.00 0.00 0.00 76 1011.7
20260504010713 30 161 0.0 3.2 0.00 0.00 0.00 76 1011.7
20260504010209 30 148 1.6 4.8 0.00 0.00 0.00 78 1011.5
20260504005705 29 126 0.0 0.0 0.00 0.00 0.00 80 1011.7
20260504005203 29 320 0.0 1.6 0.00 0.00 0.00 82 1011.7
20260504004700 29 177 0.0 0.0 0.00 0.00 0.00 80 1011.6
20260504004157 29 156 0.0 0.0 0.00 0.00 0.00 83 1011.5
20260504003653 29 157 0.0 0.0 0.00 0.00 0.00 86 1011.2
20260504003150 29 264 0.0 0.0 0.00 0.00 0.00 84 1011.1
20260504002647 28 218 0.0 0.0 0.00 0.00 0.00 86 1011.3
20260504002145 29 217 0.0 0.0 0.00 0.00 0.00 85 1011.2
20260504001642 29 217 0.0 0.0 0.00 0.00 0.00 84 1011.1
20260504001138 29 222 0.0 0.0 0.00 0.00 0.00 83 1010.9
20260504000636 29 184 0.0 0.0 0.00 0.00 0.00 83 1011.0
20260504000133 29 182 0.0 0.0 0.00 0.00 0.00 83 1011.1
20260503235631 29 280 0.0 1.6 0.00 0.00 0.00 83 1010.9
20260503235127 30 215 0.0 0.0 0.00 0.00 0.00 83 1010.7
20260503234625 30 3 1.6 1.6 0.00 0.00 0.00 80 1010.7
20260503234123 29 224 0.0 1.6 0.00 0.00 0.00 83 1010.7
20260503233620 28 202 0.0 1.6 0.00 0.00 0.00 86 1010.6
20260503233116 28 233 0.0 1.6 0.00 0.00 0.00 88 1010.3
20260503232613 28 278 0.0 1.6 0.00 0.00 0.00 89 1010.4
20260503232110 28 229 0.0 0.0 0.00 0.00 0.00 90 1010.5
20260503231608 27 229 0.0 0.0 0.00 0.00 0.00 91 1010.6
20260503231104 27 229 0.0 0.0 0.00 0.00 0.00 91 1010.6
20260503230601 27 229 0.0 0.0 0.00 0.00 0.00 91 1010.4
20260503230058 27 230 0.0 0.0 0.00 0.00 0.00 91 1010.0
20260503225555 27 230 0.0 0.0 0.00 0.00 0.00 92 1010.0
20260503225050 27 229 0.0 0.0 0.00 0.00 0.00 92 1010.1
20260503224548 27 230 0.0 0.0 0.00 0.00 0.00 93 1010.1
20260503224046 27 230 0.0 0.0 0.00 0.00 0.00 93 1009.7
20260503223544 27 229 0.0 0.0 0.00 0.00 0.00 93 1009.7
20260503223039 26 229 0.0 0.0 0.00 0.00 0.00 93 1009.4
20260503222537 26 229 0.0 0.0 0.00 0.00 0.00 93 1009.3
20260503220808 26 230 0.0 0.0 0.00 0.00 0.00 92 1009.5
20260503220306 26 230 0.0 0.0 0.00 0.00 0.00 92 1009.5
20260503215802 26 230 0.0 0.0 0.00 0.00 0.00 92 1009.5
20260503215259 26 229 0.0 0.0 0.00 0.00 0.00 93 1009.5
20260503214757 26 220 0.0 1.6 0.00 0.00 0.00 93 1009.3
20260503214254 26 220 0.0 0.0 0.00 0.00 0.00 92 1009.4
20260503213752 26 220 0.0 0.0 0.00 0.00 0.00 92 1009.5
20260503213249 26 295 0.0 0.0 0.00 0.00 0.00 92 1009.4
20260503212746 26 154 0.0 0.0 0.00 0.00 0.00 92 1009.4
20260503212243 26 153 0.0 0.0 0.00 0.00 0.00 92 1009.0
20260503211741 26 145 0.0 0.0 0.00 0.00 0.00 91 1009.3
20260503211237 27 146 0.0 0.0 0.00 0.00 0.00 90 1009.5
20260503210732 27 146 0.0 0.0 0.00 0.00 0.00 89 1009.2
20260503210230 27 143 0.0 1.6 0.00 0.00 0.00 88 1009.1
20260503205725 27 148 0.0 3.2 0.00 0.00 0.00 88 1009.0
20260503205221 26 162 0.0 1.6 0.00 0.00 0.00 90 1008.9
20260503204718 26 197 0.0 0.0 0.00 0.00 0.00 90 1009.1
20260503204216 26 197 0.0 0.0 0.00 0.00 0.00 90 1008.9
20260503203713 26 197 0.0 0.0 0.00 0.00 0.00 90 1009.0
20260503203211 26 197 0.0 0.0 0.00 0.00 0.00 90 1008.9
20260503202708 26 197 0.0 0.0 0.00 0.00 0.00 90 1009.0
20260503202206 26 197 0.0 0.0 0.00 0.00 0.00 90 1009.0
20260503201703 26 198 0.0 0.0 0.00 0.00 0.00 90 1008.8
20260503201200 26 197 0.0 0.0 0.00 0.00 0.00 90 1008.8
20260503200656 26 197 0.0 0.0 0.00 0.00 0.00 90 1008.9
20260503200153 26 197 0.0 0.0 0.00 0.00 0.00 91 1008.7
20260503195650 26 197 0.0 0.0 0.00 0.00 0.00 91 1008.6
20260503195147 26 197 0.0 0.0 0.00 0.00 0.00 91 1008.7
20260503194644 26 197 0.0 0.0 0.00 0.00 0.00 91 1008.6
20260503194139 26 198 0.0 0.0 0.00 0.00 0.00 91 1008.8
20260503193637 26 198 0.0 0.0 0.00 0.00 0.00 91 1008.6
20260503193132 26 198 0.0 0.0 0.00 0.00 0.00 91 1008.5
20260503192628 26 198 0.0 0.0 0.00 0.00 0.00 91 1008.3
20260503192123 26 198 0.0 0.0 0.00 0.00 0.00 91 1008.6
20260503191621 26 198 0.0 0.0 0.00 0.00 0.00 91 1008.5
20260503191118 26 198 0.0 0.0 0.00 0.00 0.00 91 1008.7
20260503190614 26 198 0.0 0.0 0.00 0.00 0.00 91 1008.8
20260503190111 26 198 0.0 0.0 0.00 0.00 0.00 91 1008.7
20260503185608 26 198 0.0 0.0 0.00 0.00 0.00 91 1008.8
20260503185108 26 198 0.0 0.0 0.00 0.00 0.00 91 1009.0
20260503184604 26 197 0.0 0.0 0.00 0.00 0.00 91 1009.0
20260503184100 26 197 0.0 0.0 0.00 0.00 0.00 91 1008.9
20260503183557 26 197 0.0 0.0 0.00 0.00 0.00 92 1009.0
20260503183054 26 197 0.0 0.0 0.00 0.00 0.00 92 1008.9
20260503182553 26 197 0.0 0.0 0.00 0.00 0.00 92 1008.8
20260503182050 26 197 0.0 0.0 0.00 0.00 0.00 92 1009.0
20260503181547 26 197 0.0 0.0 0.00 0.00 0.00 92 1008.8
20260503181043 26 197 0.0 0.0 0.00 0.00 0.00 91 1009.0
20260503180541 26 197 0.0 0.0 0.00 0.00 0.00 91 1009.1
20260503180038 26 197 0.0 0.0 0.00 0.00 0.00 91 1009.1
20260503175535 26 197 0.0 0.0 0.00 0.00 0.00 91 1009.2
20260503175032 26 197 0.0 0.0 0.00 0.00 0.00 91 1009.2
20260503174530 26 197 0.0 0.0 0.00 0.00 0.00 92 1009.2
20260503174026 26 197 0.0 0.0 0.00 0.00 0.00 92 1009.3
20260503173521 26 198 0.0 0.0 0.00 0.00 0.00 91 1009.1
20260503173017 26 198 0.0 0.0 0.00 0.00 0.00 91 1009.0
20260503172515 26 197 0.0 0.0 0.00 0.00 0.00 91 1009.1
20260503172012 26 197 0.0 0.0 0.00 0.00 0.00 91 1009.2
20260503171508 26 197 0.0 0.0 0.00 0.00 0.00 91 1009.3
20260503171006 26 198 0.0 0.0 0.00 0.00 0.00 91 1009.3
20260503170502 26 119 0.0 1.6 0.00 0.00 0.00 91 1009.3